Wind_Speed
11 12 13 13 14 14 14 14 13 14 14 14 14 15 14 13 12 12 12 12 12 12 12 11 10 8 7 6 5 5 4 3 2 2 3 4 5 7 8 10 11 12 13 14
11 11 12 12 13 13 14 13 13 14 15 14 15 15 14 14 13 13 12 12 12 13 12 11 10 9 8 7 6 5 5 3 3 2 3 3 4 6 7 9 10 11 12 12
11 11 11 11 12 13 13 13 13 14 14 15 15 15 14 14 13 13 13 13 13 14 13 11 10 9 9 8 7 6 6 4 3 3 2 2 3 5 6 8 9 10 10 11
10 11 11 11 11 12 13 13 13 13 14 14 16 16 15 14 13 12 12 13 13 13 13 11 10 9 9 9 8 7 6 5 4 3 2 2 2 3 5 6 7 8 9 10
9 11 11 11 11 12 12 13 13 13 13 14 15 16 15 14 13 13 13 13 13 13 13 12 11 10 9 9 8 8 7 5 4 3 2 1 1 2 3 4 6 7 8 8
9 10 10 11 12 12 12 13 12 11 12 13 14 16 15 13 13 13 14 13 12 12 12 12 12 11 10 10 9 9 8 7 5 4 3 2 1 1 2 3 4 5 6 7
9 9 10 11 12 12 12 12 13 12 12 12 13 13 12 13 13 13 13 13 13 13 13 13 12 12 11 10 10 9 9 8 6 5 4 3 2 1 0 1 3 4 5 5
9 9 9 10 12 12 12 12 12 13 13 12 12 12 11 12 13 13 13 14 13 13 13 14 14 13 12 11 10 10 9 8 7 6 5 4 3 2 1 0 1 2 3 4
10 10 10 11 11 12 11 11 12 12 12 12 11 11 11 12 12 13 13 14 13 13 13 14 14 13 13 12 12 11 10 9 8 7 6 4 4 3 2 1 0 1 2 3
10 10 10 10 10 10 11 11 12 12 12 11 11 10 10 11 12 12 12 13 13 14 14 14 14 14 14 14 13 12 11 10 9 8 7 6 5 4 4 3 2 1 2 2
10 10 10 10 10 10 11 12 12 12 12 11 11 11 10 11 11 12 13 14 14 14 14 15 15 15 14 14 13 13 12 11 10 9 8 7 6 6 6 5 4 3 3 3
8 9 10 10 10 10 11 12 12 12 11 11 11 10 10 10 11 12 13 14 15 15 15 15 16 15 15 14 14 13 13 12 11 10 9 8 8 7 7 7 6 5 5 5
9 9 9 10 10 10 11 11 12 13 13 13 12 11 11 12 12 12 13 14 15 15 15 16 16 16 15 15 14 13 13 13 12 11 10 10 9 9 9 9 8 7 7 7
10 9 9 9 9 10 11 11 11 12 14 14 12 12 13 13 13 12 13 14 15 16 16 17 17 17 17 17 16 15 14 14 13 12 11 11 11 10 10 10 9 9 8 8
11 10 10 10 10 10 10 11 11 11 12 13 13 13 13 13 12 12 12 13 14 15 15 16 17 17 17 17 17 16 15 14 14 14 13 12 12 11 11 11 11 11 11 10
12 12 11 11 11 11 11 11 11 11 12 12 13 12 13 12 11 12 12 13 13 14 14 15 16 17 17 17 17 16 16 15 15 15 15 14 14 13 13 13 13 13 13 13
13 13 12 12 12 11 11 10 11 11 11 11 12 12 12 12 11 11 12 12 13 13 13 14 15 17 18 17 18 17 17 17 17 16 16 16 15 15 15 15 15 15 15 15
14 13 13 13 13 12 10 11 11 11 11 11 11 11 11 11 11 11 11 12 13 14 14 15 15 16 17 18 18 18 18 18 18 18 18 18 18 17 17 17 17 17 17 17
16 15 15 14 13 11 11 11 11 11 11 11 11 11 11 11 11 11 12 13 13 14 15 15 16 16 17 18 18 18 18 18 19 19 19 20 20 20 20 19 19 19 18 19
18 17 17 15 14 13 11 12 12 11 10 11 11 11 11 12 12 12 12 13 13 14 15 15 16 16 17 18 19 19 19 19 19 20 21 21 22 22 21 21 21 21 20 21
18 18 17 16 15 12 12 13 12 11 10 11 11 12 13 13 14 14 14 14 14 14 15 15 15 15 16 17 18 18 19 20 20 21 21 21 22 22 22 23 23 23 23 23
21 19 18 17 16 13 14 13 13 12 12 12 13 14 14 14 15 14 14 15 15 16 16 16 15 16 16 17 18 19 20 21 22 22 22 22 22 22 23 23 24 24 24 25
21 20 19 18 16 15 15 15 15 15 15 15 14 14 14 15 15 14 15 15 16 17 17 17 17 18 18 19 19 20 21 22 22 22 22 23 23 24 24 24 25 25 25 26
22 21 21 20 19 17 17 16 16 16 16 16 16 16 16 16 16 16 16 16 16 17 18 18 19 19 19 20 21 22 22 23 23 23 23 23 24 25 25 26 27 27 28 28
24 23 22 22 21 20 18 18 18 19 18 18 18 18 18 18 18 17 17 18 18 18 19 19 20 20 21 21 22 23 24 24 24 24 25 25 26 26 27 28 28 29 30 30
26 25 24 23 21 21 20 19 19 18 19 19 19 19 19 19 18 18 18 18 19 20 21 21 22 22 23 23 24 24 25 25 25 26 26 27 27 27 28 29 30 30 31 32
Wind_Direction
250 245 240 241 239 234 231 231 227 221 220 220 219 220 220 217 214 209 210 210 210 211 208 200 197 196 194 190 184 176 168 153 126 96 82 68 61 52 45 43 41 43 43 43
248 245 239 240 234 230 226 228 226 221 218 220 219 218 218 218 215 213 213 214 211 209 205 201 200 200 195 193 190 182 176 166 153 124 101 82 68 55 46 43 45 44 43 42
244 240 238 236 230 225 226 228 225 221 220 220 217 216 215 215 216 217 217 216 215 212 209 204 202 205 202 196 192 187 182 173 163 148 128 101 77 59 49 47 47 46 44 44
240 235 234 232 229 223 224 223 221 216 218 218 217 217 215 217 215 218 221 218 213 208 209 205 203 203 199 196 195 191 187 180 170 162 147 126 84 62 56 51 49 48 46 47
235 232 229 228 223 220 221 219 219 220 219 218 219 219 215 216 217 218 220 221 216 209 205 204 205 203 201 201 202 195 193 189 182 182 182 173 122 77 61 55 53 51 49 47
229 225 223 220 217 216 218 218 220 224 224 222 221 222 215 215 216 217 217 214 213 210 208 207 203 206 204 204 204 201 201 200 198 198 198 192 171 114 69 58 51 48 47 46
221 219 222 216 212 209 212 216 223 225 224 225 222 219 212 216 217 216 216 213 212 213 215 209 204 206 207 205 205 202 203 205 205 203 200 202 200 193 112 55 44 41 43 45
221 217 218 216 213 213 215 219 225 228 227 229 225 219 211 215 216 218 217 213 213 213 213 210 206 209 209 206 205 204 204 206 207 205 203 211 216 216 217 225 36 33 34 34
229 230 225 216 217 218 216 221 224 228 229 229 224 220 215 215 217 219 219 216 215 215 216 213 211 213 212 209 207 208 209 210 212 212 214 217 218 220 226 232 304 1 8 13
231 231 227 220 219 221 224 227 227 231 228 227 223 221 218 220 220 221 218 214 214 217 218 217 217 217 215 212 210 211 211 213 218 219 221 225 225 227 231 235 248 295 325 341
227 227 224 226 229 228 226 230 230 231 232 225 219 217 219 222 225 221 219 218 218 218 219 218 217 219 220 217 216 216 214 218 221 225 226 226 231 236 238 243 249 266 285 296
225 227 226 228 228 230 232 234 230 230 227 224 221 219 219 222 223 221 221 222 222 222 221 219 218 218 219 217 217 216 218 221 225 226 224 228 235 241 245 248 251 261 273 282
222 227 231 231 232 232 231 231 228 228 224 224 223 223 224 228 229 226 224 224 226 225 223 223 222 221 217 217 217 218 220 222 226 228 228 232 238 243 247 250 253 259 267 276
224 228 233 234 234 233 232 229 223 224 224 224 224 224 227 232 230 227 227 228 229 229 228 227 225 224 220 219 218 218 221 224 228 231 232 235 239 243 247 251 256 260 265 272
228 229 231 233 236 236 234 228 222 223 221 223 223 227 230 233 231 230 232 231 228 227 228 226 225 224 223 223 222 222 224 228 231 233 236 239 243 246 250 254 258 262 265 269
231 234 237 239 240 239 238 235 232 226 221 224 226 229 230 229 229 233 235 232 228 229 230 228 225 225 225 224 224 226 230 232 234 236 239 243 248 250 252 255 260 263 265 268
232 236 236 239 241 241 239 236 232 230 227 225 226 231 230 230 231 232 233 231 230 231 230 228 226 226 227 227 228 230 234 236 237 240 242 247 250 253 256 258 262 264 266 269
232 235 237 240 242 241 238 236 234 231 228 228 230 230 232 230 229 229 231 234 234 232 229 229 229 230 229 231 232 235 237 241 241 243 246 248 253 256 258 260 262 264 267 269
233 236 237 238 240 237 237 240 236 232 229 232 234 232 233 230 229 230 230 231 234 231 228 228 230 233 235 237 238 239 241 244 245 247 249 252 254 257 260 261 263 265 267 269
234 236 237 240 243 243 238 239 236 234 231 231 231 233 234 235 237 236 234 233 234 235 233 232 234 238 239 240 243 243 245 247 249 251 253 254 256 258 260 263 264 264 266 268
235 237 238 240 243 241 237 239 239 239 236 235 235 236 236 239 242 242 241 239 238 238 237 239 242 244 244 244 244 246 249 250 254 254 257 259 259 260 261 264 265 264 266 268
235 238 239 240 241 236 234 236 238 238 238 239 238 238 240 244 244 241 241 242 243 243 243 245 247 248 249 249 250 252 252 253 255 257 260 262 263 263 263 265 265 266 268 269
234 236 237 238 238 237 235 235 237 238 240 243 242 241 243 244 243 245 245 246 247 247 248 250 251 253 255 256 257 257 256 256 257 260 263 264 265 267 267 267 268 268 268 270
235 237 238 237 237 240 240 235 237 241 243 242 242 244 246 247 248 251 251 250 250 252 253 254 254 256 257 258 258 258 258 258 259 262 265 266 267 268 268 269 269 270 270 272
236 238 240 239 238 242 243 242 241 240 241 241 243 245 247 248 249 252 252 252 253 256 258 258 259 259 259 259 260 259 260 261 262 264 266 267 267 268 269 270 271 271 272 274
235 238 240 241 241 243 244 243 241 242 242 242 245 246 247 248 250 252 253 255 255 256 258 260 261 263 264 263 263 262 263 264 265 266 267 268 268 268 270 272 272 273 274 275
Height
5838 5840 5840 5842 5843 5845 5846 5848 5851 5853 5855 5858 5860 5862 5864 5867 5869 5871 5873 5874 5876 5878 5880 5881 5883 5885 5886 5887 5888 5889 5889 5890 5890 5890 5890 5889 5889 5888 5887 5885 5883 5881 5879 5877
5837 5837 5838 5839 5841 5843 5844 5847 5849 5851 5853 5856 5858 5860 5863 5865 5867 5869 5871 5873 5875 5877 5879 5880 5882 5884 5885 5886 5887 5888 5889 5890 5890 5890 5890 5890 5889 5889 5887 5886 5884 5883 5881 5879
5834 5836 5836 5837 5839 5841 5843 5845 5847 5849 5852 5854 5856 5859 5861 5864 5865 5868 5870 5871 5873 5875 5877 5879 5880 5882 5884 5885 5887 5887 5889 5889 5890 5890 5890 5890 5890 5889 5888 5887 5885 5884 5883 5881
5832 5834 5835 5836 5838 5839 5842 5844 5846 5848 5850 5852 5855 5857 5860 5862 5864 5866 5868 5870 5872 5873 5875 5877 5879 5881 5883 5884 5885 5887 5888 5889 5889 5890 5890 5890 5890 5889 5889 5888 5887 5885 5884 5883
5831 5832 5833 5835 5837 5838 5840 5842 5844 5846 5848 5851 5853 5855 5859 5860 5862 5865 5867 5868 5870 5872 5874 5876 5878 5880 5881 5883 5884 5886 5887 5888 5889 5890 5890 5890 5890 5890 5889 5889 5888 5887 5886 5884
5830 5831 5832 5833 5835 5837 5839 5841 5843 5844 5846 5849 5851 5854 5857 5858 5861 5863 5864 5866 5868 5870 5872 5874 5876 5878 5880 5882 5883 5885 5886 5887 5888 5889 5889 5890 5890 5890 5890 5889 5888 5888 5887 5886
5829 5830 5831 5832 5834 5836 5838 5841 5842 5843 5845 5848 5850 5852 5856 5857 5858 5860 5863 5865 5867 5869 5871 5873 5875 5877 5879 5880 5882 5883 5885 5886 5887 5888 5889 5889 5890 5890 5890 5889 5889 5888 5887 5887
5828 5829 5830 5831 5833 5835 5836 5839 5842 5843 5845 5846 5848 5850 5854 5855 5856 5858 5861 5863 5865 5867 5870 5872 5874 5875 5877 5879 5881 5883 5884 5885 5886 5887 5888 5889 5889 5889 5889 5889 5889 5888 5888 5887
5827 5829 5830 5830 5832 5834 5836 5838 5840 5842 5843 5845 5847 5850 5852 5853 5855 5857 5859 5861 5864 5866 5868 5870 5872 5874 5876 5878 5879 5881 5883 5884 5885 5886 5887 5888 5888 5889 5889 5889 5889 5889 5888 5887
5826 5828 5829 5830 5831 5833 5835 5837 5839 5840 5842 5844 5846 5848 5850 5852 5854 5855 5857 5859 5862 5864 5866 5868 5870 5872 5874 5876 5877 5879 5881 5883 5884 5885 5886 5887 5887 5888 5888 5888 5888 5888 5888 5887
5825 5827 5828 5829 5830 5832 5834 5836 5837 5838 5840 5842 5844 5849 5849 5850 5852 5853 5855 5857 5859 5862 5864 5866 5868 5870 5872 5873 5875 5877 5879 5881 5882 5883 5884 5885 5886 5887 5887 5887 5887 5887 5887 5887
5824 5825 5826 5828 5829 5830 5832 5833 5835 5837 5839 5840 5843 5848 5847 5848 5850 5851 5853 5855 5857 5859 5861 5863 5865 5867 5869 5871 5873 5875 5877 5878 5880 5881 5882 5883 5884 5885 5885 5886 5886 5886 5886 5886
5823 5825 5826 5827 5830 5830 5830 5831 5833 5835 5836 5838 5841 5846 5845 5846 5847 5849 5851 5853 5854 5856 5858 5860 5862 5864 5866 5869 5871 5873 5874 5876 5878 5879 5880 5881 5882 5883 5883 5884 5884 5884 5884 5884
5821 5823 5825 5826 5826 5827 5828 5829 5831 5833 5834 5836 5839 5841 5842 5843 5845 5846 5848 5850 5852 5854 5855 5857 5859 5861 5864 5866 5868 5870 5872 5873 5875 5876 5878 5879 5880 5880 5881 5882 5882 5882 5882 5882
5820 5821 5822 5823 5824 5825 5826 5827 5829 5830 5832 5834 5837 5838 5840 5841 5842 5844 5845 5847 5849 5851 5852 5854 5856 5858 5861 5863 5865 5867 5869 5870 5872 5874 5875 5876 5877 5878 5878 5879 5879 5880 5880 5879
5817 5819 5820 5822 5822 5823 5824 5825 5827 5828 5830 5832 5834 5836 5837 5838 5840 5841 5843 5844 5846 5847 5849 5851 5853 5855 5857 5860 5862 5864 5866 5867 5869 5870 5872 5873 5874 5875 5875 5876 5876 5877 5877 5877
5815 5817 5818 5820 5820 5821 5823 5824 5825 5826 5828 5830 5831 5834 5834 5836 5837 5838 5840 5841 5843 5844 5846 5848 5850 5852 5854 5856 5858 5861 5862 5864 5865 5867 5868 5869 5870 5871 5872 5872 5873 5873 5873 5873
5812 5814 5816 5817 5819 5820 5823 5822 5823 5825 5826 5827 5829 5831 5832 5833 5834 5836 5837 5839 5840 5842 5843 5845 5847 5849 5851 5853 5855 5857 5858 5860 5862 5863 5864 5865 5866 5867 5868 5868 5869 5869 5869 5869
5809 5811 5813 5814 5815 5817 5820 5820 5821 5822 5824 5825 5826 5828 5829 5830 5832 5833 5835 5836 5837 5839 5840 5842 5844 5845 5847 5849 5851 5853 5855 5856 5858 5859 5860 5861 5862 5863 5863 5864 5864 5864 5865 5865
5806 5808 5811 5812 5813 5815 5818 5818 5818 5821 5822 5823 5824 5825 5827 5828 5830 5832 5832 5833 5835 5836 5837 5839 5840 5842 5843 5845 5847 5849 5850 5852 5853 5854 5855 5856 5857 5858 5858 5859 5859 5859 5859 5860
5802 5804 5807 5808 5810 5812 5814 5814 5816 5819 5821 5821 5821 5822 5824 5825 5827 5828 5829 5830 5832 5833 5834 5835 5837 5838 5839 5841 5843 5844 5845 5847 5848 5849 5850 5850 5851 5852 5853 5853 5853 5854 5854 5854
5798 5800 5803 5804 5807 5811 5811 5812 5814 5816 5816 5817 5818 5819 5821 5822 5823 5824 5825 5827 5828 5829 5831 5832 5833 5834 5835 5837 5838 5839 5840 5841 5842 5843 5844 5845 5845 5846 5846 5847 5847 5847 5847 5847
5794 5797 5799 5801 5805 5806 5807 5808 5810 5811 5813 5814 5815 5816 5817 5818 5819 5820 5821 5823 5824 5825 5826 5828 5829 5830 5831 5832 5833 5834 5835 5835 5837 5838 5838 5839 5839 5840 5840 5840 5840 5840 5840 5840
5789 5791 5794 5796 5799 5801 5802 5804 5806 5807 5809 5810 5811 5812 5813 5814 5815 5816 5817 5818 5819 5821 5822 5823 5824 5825 5826 5827 5828 5828 5829 5830 5831 5832 5832 5832 5833 5833 5833 5833 5833 5833 5833 5833
5784 5786 5789 5791 5794 5796 5798 5800 5801 5803 5805 5806 5807 5808 5809 5810 5811 5812 5813 5813 5815 5816 5817 5818 5819 5820 5820 5821 5822 5822 5823 5824 5824 5825 5825 5825 5825 5826 5826 5826 5826 5825 5825 5825
5778 5781 5784 5787 5789 5791 5793 5795 5797 5798 5800 5801 5802 5803 5804 5805 5806 5807 5807 5808 5810 5811 5811 5812 5813 5813 5814 5815 5815 5816 5816 5817 5817 5818 5818 5818 5818 5818 5818 5818 5817 5817 5817 5816